Home   Weather   Sevilla   Past weeks

Flag for Spain Past Weather in Sevilla, Spain — Yesterday and Last 2 Weeks

Now
61 °F

Light rain. Partly sunny.


Feels Like: 61 °F
Forecast: 56 / 68 °F
Wind: 7 mph from Northeast

Location: Sevilla / San Pablo

Current Time: Apr 28, 2017 at 8:29:18 pm

Latest Report: Apr 28, 2017 at 8:00 pm


Visibility: N/A

Pressure: 29.80 "Hg

Humidity: 94%

Dew Point: 59 °F

Location of SevillaLocation

Past Weather in Sevilla — Graph

°F

Sevilla Temperature Yesterday

Maximum temperature yesterday: 73 °F (at 4:00 pm)
Minimum temperature yesterday: 59 °F (at 2:30 am)
Average temperature yesterday: 63 °F

High & Low Weather Summary for the Past Weeks

 TemperatureHumidityPressure
High90 °F (Apr 18, 4:30 pm)100% (Apr 15, 5:00 am)30.15 "Hg (Apr 15, 5:00 am)
Low55 °F (Apr 15, 7:00 am)16% (Apr 18, 5:00 pm)29.74 "Hg (Apr 18, 6:30 pm)
Average67 °F62%29.95 "Hg
* Reported Apr 13 7:00 pm — Apr 28 7:30 pm, Sevilla, Weather by CustomWeather, © 2017

Note: Actual official high and low records may vary slightly from our data, if they occured in-between our weather recording intervals... More about our weather records

Advertising

Sevilla Weather History for the Previous 24 Hours

Scroll right to see more
 ConditionsComfort  
Time TempWeatherWind HumidityBarometerVisibility
7:30 pm
Fri, Apr 28
61 °FLight rain. Partly sunny.6 mph94%29.80 "HgN/A
7:00 pm61 °FLight rain. Partly sunny.7 mph94%29.80 "HgN/A
6:30 pm61 °FPartly sunny.5 mph94%29.80 "HgN/A
6:00 pm61 °FPartly sunny.5 mph94%29.80 "HgN/A
5:30 pm61 °FLight rain. Broken clouds.5 mph94%29.80 "HgN/A
5:00 pm63 °FRain. Partly sunny.6 mph88%29.80 "HgN/A
4:30 pm63 °FLight rain. Partly sunny.10 mph88%29.80 "HgN/A
4:00 pm61 °FLight rain. Broken clouds.10 mph94%29.80 "HgN/A
3:30 pm61 °FLight rain. Broken clouds.12 mph88%29.80 "HgN/A
3:19 pm61 °FLight rain. Partly sunny.12 mph88%29.80 "Hg4 mi
3:00 pm61 °FRain. Partly sunny.7 mph88%29.80 "Hg4 mi
2:00 pm61 °FLight rain. Partly sunny.14 mph88%29.80 "HgN/A
1:30 pm61 °FLight rain. Broken clouds.14 mph88%29.80 "HgN/A
1:00 pm59 °FLight rain. Broken clouds.14 mph94%29.83 "HgN/A
12:30 pm59 °FLight rain. Broken clouds.15 mph94%29.80 "HgN/A
12:00 pm59 °FLight rain. Partly sunny.14 mph94%29.83 "HgN/A
11:30 am59 °FRain. Partly sunny.14 mph94%29.80 "HgN/A
11:00 am59 °FLight rain. Partly sunny.14 mph94%29.80 "HgN/A
10:43 am57 °FLight rain. Partly sunny.13 mph100%29.80 "HgN/A
9:30 am57 °FLight rain. Partly sunny.15 mph94%29.80 "Hg6 mi
9:00 am57 °FPartly sunny.15 mph100%29.77 "HgN/A
8:30 am57 °FDrizzle. Partly sunny.13 mph100%29.77 "HgN/A
8:00 am57 °FLight rain. Broken clouds.10 mph100%29.77 "Hg6 mi
7:30 am57 °FRain. Passing clouds.10 mph100%29.77 "Hg3 mi
7:00 am57 °FRain. Partly cloudy.12 mph94%29.77 "Hg4 mi
6:42 am57 °FLight rain. Partly cloudy.13 mph100%29.77 "Hg6 mi
6:30 am57 °FRain. Partly cloudy.8 mph100%29.77 "Hg4 mi
6:16 am59 °FRain. Partly cloudy.7 mph94%29.80 "Hg4 mi
6:05 am59 °FHeavy rain. Partly cloudy.No wind100%29.80 "Hg2 mi
5:44 am59 °FRain. Partly cloudy.3 mph100%29.77 "Hg4 mi
5:30 am59 °FRain showers. Partly cloudy.2 mph100%29.77 "Hg5 mi
5:22 am59 °FRain. Partly cloudy.5 mph100%29.77 "Hg6 mi
4:30 am59 °FRain. Passing clouds.3 mph100%29.77 "Hg4 mi
4:06 am59 °FRain. Passing clouds.3 mph100%29.77 "Hg2 mi
3:30 am59 °FPartly cloudy.10 mph100%29.77 "HgN/A
3:00 am59 °FRain. Mostly cloudy.7 mph100%29.77 "Hg4 mi
2:30 am59 °FRain. Passing clouds.6 mph100%29.80 "Hg3 mi
2:00 am59 °FHeavy rain. Partly cloudy.6 mph100%29.80 "Hg3 mi
1:30 am59 °FHeavy rain. Mostly cloudy.5 mph100%29.83 "Hg2 mi
1:00 am61 °FRain. Passing clouds.3 mph94%29.83 "Hg5 mi
12:30 am61 °FRain. Passing clouds.3 mph94%29.83 "HgN/A
12:00 am61 °FPassing clouds.5 mph94%29.83 "HgN/A
11:30 pm
Thu, Apr 27
61 °FLight rain. Passing clouds.2 mph94%29.83 "HgN/A
11:00 pm61 °FPassing clouds.1 mph88%29.83 "HgN/A
10:30 pm61 °FLight rain. Passing clouds.No wind88%29.80 "HgN/A
10:00 pm61 °FLight rain. Passing clouds.1 mph94%29.80 "HgN/A
9:00 pm61 °FLight rain. Passing clouds.No wind88%29.80 "HgN/A
8:30 pm61 °FLight rain. Passing clouds.3 mph88%29.80 "HgN/A
8:22 pm61 °FLight rain. Passing clouds.5 mph88%29.80 "HgN/A
8:00 pm63 °FRain. Partly sunny.6 mph83%29.80 "Hg6 mi
Weather by CustomWeather, © 2017

See weather overviewHow to use our weather pages